STARLINK-32453, 61671

Orbit data source: Space-Track

STARLINK-32453, 61671 is a payload satellite owned by SpaceX/Seattle (US) in LEO that was launched on Sat, 26 Oct 2024 UTC via an FALCON 9 launch vehicle from the Air Force Eastern Test Range (AFETR). Payload-class satellites include a variety of spacecraft equipped with specific instruments for various scientific and technological missions. These include communications satellites like Starlink; space stations such as the ISS; scientific satellites like the Hubble; Earth observation satellites from companies like Planet Labs, Umbra, and HawkEye 360; GPS; miniature CubeSats for education and research; and military/defense satellites.

Loading next visibility...
Identifier
61671, 2024-193L
Orbit
LEO
Country
Flag of USUS
Related business
Manufacturer
SpaceX/Seattle
Mission
Operational Commercial Communications
Bus & Motor
STARLINK V2M, Unknown motor
Mass
730 kg wet, ~700 kg dry
Launch date (UTC)
2024-10-26 (2 years ago)
Launch vehicle
FALCON 9
Launch site
Air Force Eastern Test Range (AFETR)
Object type
Payload
Rocket body
Debris
Shape & HBR
Box + 2 Pan, 17.7 m
Radar Cross Section
33.884 m², Large (>1 m²)

Expand to show TLE details & history
Last TLE update: 11 hours ago

TLE from 11 hours ago
0 STARLINK-32453
1 61671U 24193L   26125.48515819  .00000636  00000-0  33614-4 0  9993
2 61671  53.1602 187.1015 0001134 104.2752 255.8374 15.30191802 85224
Epoch: 2026-05-05T11:38Z
TLE epoch observation values (Epoch: 2026-05-05T11:38:37.667Z)
Latitude
-0.00009°
Longitude
149.08516°
Altitude
476.33 km
Speed
7.629 km/s
True Right ascension
12h 28m 24s
True Declination
0° 00' 00"
Sunlit
Object was in full shadow at epoch
Visualization orbit readout
Latitude
Unknown
Longitude
Unknown
Altitude
Unknown
Speed
Unknown
Apparent Right ascension
Unknown
Apparent Declination
Unknown
Sunlit
N/A
Visualization observer readout
Local Sidereal Time
06:10:00
Azimuth
Unknown
Elevation
Unknown
Doppler factor
Unknown
Orbital elements
Apogee altitude
476.273 km
Perigee altitude
474.719 km
Semi-major axis
6,853.633 km
Eccentricity
0.00011
Inclination
53.1602°
RAAN
187.1015°
Arg. of periapsis
104.2752°
True anomaly
255.8248°
Mean anomaly
255.8374°
Eccentric anomaly
255.8311°
Mean motion
3.82527 °/min
Orbital period
94.11 mins
BSTAR
0.000033614
Loading maneuver chart data...
Computing Atmospheric mass density...
Loading historical data...
Loading historical data...
Loading historical data...
Loading historical data...
Loading historical data...
Loading historical data...
Loading historical data...

Documentation

Showing up to 5 results
|